Location: Gorze? G�rny
(49.8500°N, 19.5000°E)
Time: 04:13:20
(UTC+00:00)

Resurs 01 Rocket - Pass Details

Date: 13 May 2021
Orbit: 633 x 645 km, 97.9° (Epoch: 20 June)

Event Time Altitude Azimuth Distance (km) Brightness Sun altitude
Exits shadow 19:11:26 - 167° (SSE) 2,530 4.2 -7.8°
Reaches altitude 10° 19:12:39 10° 167° (SSE) 2,036 3.7 -7.9°
Maximum altitude 19:17:05 83° 255° (WSW) 655 1.7 -8.4°
Drops below altitude 10° 19:21:34 10° 345° (NNW) 2,047 5.2 -9.0°
Sets 19:23:47 0° 346° (NNW) 2,959 6.1 -9.2°
